Flag for U.S.A. Weather past 2 weeks in Rancho Cucamonga, California, U.S.A.

Now
53 °F

Passing clouds.


Feels Like: 53 °F
Forecast: 51 / 70 °F
Wind: No wind

Location: Ontario International Airport

Current Time: Jan 28, 2015 at 2:19:44 AM

Latest Report: Jan 28, 2015 at 1:53 AM


Visibility: 10 mi

Pressure: 30.17 "Hg

Humidity: 80%

Dew point: 47 °F

Location of Rancho CucamongaLocation

Historic Weather in Rancho Cucamonga — Graph

°F

Rancho Cucamonga temperature yesterday

Maximum temperature yesterday: 70 °F (at 2:53 PM)
Minimum temperature yesterday: 55 °F (at 12:53 AM)
Average temperature yesterday: 61 °F

Past Weeks' High & Low Weather Summary

 TemperatureHumidityPressure
High81 °F (Jan 25, 12:53 PM)100% (Jan 13, 12:53 AM)30.26 "Hg (Jan 13, 12:53 AM)
Low44 °F (Jan 15, 3:53 AM)6% (Jan 23, 4:53 PM)29.90 "Hg (Jan 20, 3:53 PM)
Average61 °F45%30.10 "Hg
* Reported Jan 13 12:02 AM — Jan 28 12:53 AM, Rancho Cucamonga, Weather by CustomWeather, © 2014

Note: Actual official high and low records may vary slightly from our data, if they occured in-between our weather recording intervals... More about our weather records

Advertising

Rancho Cucamonga weather history for previous 24 hours

 ConditionsComfort  
Time TempWeatherWind HumidityBarometerVisibility
12:53 AM
Jan 28
57 °FPassing clouds.No wind69%30.16 "Hg10 mi
11:53 PM
Jan 27
57 °FPassing clouds.No wind74%30.16 "Hg10 mi
10:53 PM57 °FPassing clouds.3 mph78%30.16 "Hg10 mi
9:53 PM58 °FPassing clouds.No wind72%30.16 "Hg10 mi
8:53 PM59 °FPassing clouds.3 mph69%30.16 "Hg10 mi
7:53 PM59 °FPassing clouds.6 mph72%30.16 "Hg10 mi
6:53 PM62 °FPassing clouds.5 mph65%30.15 "Hg10 mi
5:53 PM65 °FPassing clouds.7 mph56%30.13 "Hg10 mi
4:53 PM68 °FScattered clouds.8 mph44%30.12 "Hg10 mi
3:53 PM70 °FScattered clouds.7 mph41%30.13 "Hg10 mi
2:53 PM70 °FScattered clouds.6 mph44%30.12 "Hg10 mi
1:53 PM69 °FScattered clouds.5 mph44%30.12 "Hg10 mi
12:53 PM69 °FScattered clouds.3 mph44%30.13 "Hg10 mi
11:53 AM68 °FPassing clouds.No wind49%30.16 "Hg10 mi
10:53 AM66 °FPassing clouds.5 mph56%30.18 "Hg10 mi
9:53 AM64 °FPassing clouds.3 mph65%30.19 "Hg10 mi
8:53 AM61 °FBroken clouds.3 mph75%30.20 "Hg10 mi
7:53 AM59 °FBroken clouds.No wind81%30.19 "Hg9 mi
6:53 AM57 °FFog.No wind87%30.17 "Hg7 mi
5:53 AM56 °FPartly cloudy.No wind93%30.14 "Hg7 mi
4:53 AM57 °FMostly cloudy.No wind87%30.13 "Hg8 mi
3:53 AM56 °FOvercast.No wind90%30.12 "Hg7 mi
2:53 AM55 °FFog.No wind93%30.11 "Hg4 mi
Weather by CustomWeather, © 2014

See weather overviewHow to use our weather pages